Weather History for KMAN - December, 2013

Change the Weather History Date:

Friday, December 20, 2013

  Actual Average (KBOI) Record (KBOI)
Temperature  
Mean Temperature 16 °F 30 °F  
Max Temperature 28 °F 37 °F 57 °F (1964)
Min Temperature 5 °F 23 °F -8 °F (1990)
Degree Days  
Heating Degree Days 48 35  
Month to date heating degree days 673  
Since 1 July heating degree days 1927  
Cooling Degree Days 0 0  
Month to date cooling degree days 0  
Year to date cooling degree days 942  
Moisture  
Dew Point 14 °F    
Average Humidity 87    
Maximum Humidity 100    
Minimum Humidity 55    
Precipitation  
Precipitation 0.16 in 0.05 in 0.71 in (1996)
Month to date precipitation 1.00  
Year to date precipitation 11.18  
Snow  
Snow 0.00 in 0.20 in 9.80 in (1996)
Month to date snowfall 4.2  
Since 1 July snowfall 6.9  
Snow Depth -    
Sea Level Pressure  
Sea Level Pressure 29.98 in    
Wind  
Wind Speed 2 mph (SE)    
Max Wind Speed 9 mph    
Max Gust Speed -    
Visibility 8 miles    
Events      
T = Trace of Precipitation, MM = Missing Value Source: NWS Daily Summary

Daily Weather History Graph

Daily Weather History Graph

Search for Another Location

Airport or City:

Trip Planner

Search our weather history database for the weather conditions in past years. The results will help you decide how hot, cold, wet, or windy it might be!

Date:

Astronomy

Dec. 20, 2013 Rise Set
Actual Time 8:15 AM MST 5:12 PM MST
Civil Twilight 7:42 AM MST 5:44 PM MST
Nautical Twilight 7:06 AM MST 6:21 PM MST
Astronomical Twilight 6:31 AM MST 6:56 PM MST
Moon 8:42 PM MST (12/20) 10:07 AM MST (12/20)
Length of Visible Light 10h 01m
Length of Day
8h 56m
Waning Gibbous, 90% of the Moon is Illuminated
Dec 20
Waning Gibbous
Dec 25
Last Quarter
Jan 1
New
Jan 7
First Quarter
Jan 15
Full

Hourly Weather History & Observations

Time (MST) Temp. Windchill Dew Point Humidity Pressure Visibility Wind Dir Wind Speed Gust Speed Precip Events Conditions
12:15 AM 17.6 °F - 10.4 °F 73% 30.09 in 10.0 mi Calm Calm - N/A   Unknown
12:35 AM 12.2 °F - 8.6 °F 85% 30.08 in 10.0 mi Calm Calm - N/A   Unknown
12:55 AM 15.8 °F 10.2 °F 10.4 °F 79% 30.07 in 10.0 mi North 3.5 mph - N/A   Unknown
1:15 AM 10.4 °F 4.0 °F 6.8 °F 85% 30.08 in 10.0 mi SSE 3.5 mph - N/A   Unknown
1:35 AM 12.2 °F - 8.6 °F 85% 30.07 in 10.0 mi Calm Calm - N/A   Unknown
1:55 AM 10.4 °F 2.2 °F 8.6 °F 92% 30.07 in 10.0 mi ENE 4.6 mph - N/A   Unknown
2:15 AM 10.4 °F - 6.8 °F 85% 30.07 in 10.0 mi Calm Calm - N/A   Clear
2:35 AM 8.6 °F - 6.8 °F 92% 30.07 in 10.0 mi Calm Calm - N/A   Unknown
2:55 AM 8.6 °F - 6.8 °F 92% 30.08 in 10.0 mi Calm Calm - N/A   Unknown
3:15 AM 8.6 °F - 6.8 °F 92% 30.08 in 10.0 mi Calm Calm - N/A   Unknown
3:35 AM 8.6 °F - 6.8 °F 92% 30.08 in 10.0 mi Calm Calm - N/A   Unknown
3:55 AM 6.8 °F - 6.8 °F 100% 30.08 in 9.0 mi Calm Calm - N/A   Unknown
4:15 AM 8.6 °F - 6.8 °F 92% 30.07 in 10.0 mi Calm Calm - N/A   Clear
4:35 AM 6.8 °F - 5.0 °F 92% 30.07 in 10.0 mi Calm Calm - N/A   Clear
4:55 AM 5.0 °F -2.1 °F 5.0 °F 100% 30.06 in 10.0 mi ESE 3.5 mph - N/A   Unknown
5:15 AM 6.8 °F -0.1 °F 6.8 °F 100% 30.06 in 10.0 mi ESE 3.5 mph - N/A   Unknown
5:35 AM 5.0 °F - 5.0 °F 100% 30.07 in 10.0 mi Calm Calm - N/A   Unknown
5:55 AM 5.0 °F - 5.0 °F 100% 30.07 in 10.0 mi Calm Calm - N/A   Unknown
6:15 AM 8.6 °F 2.0 °F 6.8 °F 92% 30.07 in 10.0 mi East 3.5 mph - N/A   Unknown
6:35 AM 5.0 °F - 3.2 °F 92% 30.07 in 10.0 mi Calm Calm - N/A   Unknown
6:55 AM 5.0 °F -2.1 °F 5.0 °F 100% 30.07 in 10.0 mi ESE 3.5 mph - N/A   Unknown
7:15 AM 6.8 °F -0.1 °F 5.0 °F 92% 30.06 in 10.0 mi ESE 3.5 mph - N/A   Unknown
7:35 AM 6.8 °F -0.1 °F 5.0 °F 92% 30.06 in 10.0 mi ESE 3.5 mph - N/A   Unknown
7:55 AM 6.8 °F - 6.8 °F 100% 30.07 in 10.0 mi Calm Calm - N/A   Unknown
8:15 AM 8.6 °F - 6.8 °F 92% 30.07 in 10.0 mi Calm Calm - N/A   Clear
8:35 AM 8.6 °F - 6.8 °F 92% 30.06 in 10.0 mi Calm Calm - N/A   Scattered Clouds
8:55 AM 10.4 °F - 8.6 °F 92% 30.06 in 10.0 mi Calm Calm - N/A   Mostly Cloudy
9:15 AM 10.4 °F - 8.6 °F 92% 30.06 in 10.0 mi Calm Calm - N/A   Clear
9:35 AM 12.2 °F - 8.6 °F 85% 30.07 in 10.0 mi Calm Calm - N/A   Clear
9:55 AM 14.0 °F 8.2 °F 8.6 °F 79% 30.06 in 10.0 mi SE 3.5 mph - N/A   Clear
10:15 AM 14.0 °F 8.2 °F 10.4 °F 86% 30.07 in 9.0 mi SE 3.5 mph - N/A   Clear
10:35 AM 15.8 °F - 10.4 °F 79% 30.08 in 10.0 mi Calm Calm - N/A   Clear
10:55 AM 17.6 °F - 10.4 °F 73% 30.07 in 10.0 mi Calm Calm - N/A   Clear
11:15 AM 19.4 °F - 12.2 °F 74% 30.08 in 10.0 mi Calm Calm - N/A   Clear
11:35 AM 19.4 °F - 14.0 °F 80% 30.06 in 10.0 mi Calm Calm - N/A   Clear
11:55 AM 23.0 °F - 15.8 °F 74% 30.06 in 10.0 mi Calm Calm - N/A   Clear
12:15 PM 23.0 °F - 15.8 °F 74% 30.04 in 10.0 mi Calm Calm - N/A   Clear
12:35 PM 24.8 °F - 15.8 °F 69% 30.04 in 10.0 mi Calm Calm - N/A   Clear
12:55 PM 24.8 °F - 15.8 °F 69% 30.02 in 10.0 mi Calm Calm - N/A   Clear
1:15 PM 26.6 °F - 15.8 °F 64% 30.01 in 10.0 mi Calm Calm - N/A   Partly Cloudy
1:35 PM 26.6 °F - 15.8 °F 64% 30.00 in 10.0 mi Calm Calm - N/A   Mostly Cloudy
1:55 PM 26.6 °F - 14.0 °F 59% 29.98 in 10.0 mi Calm Calm - N/A   Overcast
2:15 PM 26.6 °F - 14.0 °F 59% 29.97 in 10.0 mi Calm Calm - N/A   Mostly Cloudy
2:35 PM 26.6 °F - 14.0 °F 59% 29.97 in 10.0 mi Calm Calm - N/A   Partly Cloudy
2:55 PM 28.4 °F - 14.0 °F 55% 29.96 in 10.0 mi Calm Calm - N/A   Mostly Cloudy
3:15 PM 28.4 °F - 14.0 °F 55% 29.94 in 10.0 mi Calm Calm - N/A   Overcast
3:35 PM 28.4 °F 24.6 °F 14.0 °F 55% 29.93 in 10.0 mi ESE 3.5 mph - N/A   Overcast
3:55 PM 28.4 °F - 14.0 °F 55% 29.92 in 10.0 mi Calm Calm - N/A   Overcast
4:15 PM 28.4 °F - 15.8 °F 59% 29.94 in 10.0 mi Calm Calm - N/A   Overcast
4:35 PM 28.4 °F 24.6 °F 14.0 °F 55% 29.93 in 3.0 mi ESE 3.5 mph - N/A   Mostly Cloudy
4:55 PM 26.6 °F 22.6 °F 21.2 °F 80% 29.92 in 1.2 mi SE 3.5 mph - N/A   Clear
5:15 PM 24.8 °F 19.1 °F 24.8 °F 100% 29.91 in 1.0 mi ESE 4.6 mph - N/A   Mostly Cloudy
5:35 PM 24.8 °F 17.9 °F 24.8 °F 100% 29.89 in 2.0 mi ESE 5.8 mph - N/A   Scattered Clouds
5:55 PM 24.8 °F 19.1 °F 24.8 °F 100% 29.89 in 1.2 mi SE 4.6 mph - 0.01 in   Mostly Cloudy
6:15 PM 24.8 °F 19.1 °F 24.8 °F 100% 29.87 in 1.0 mi SE 4.6 mph - N/A   Overcast
6:35 PM 24.8 °F 16.9 °F 24.8 °F 100% 29.84 in 1.0 mi SE 6.9 mph - 0.02 in   Overcast
6:55 PM 24.8 °F 19.1 °F 24.8 °F 100% 29.84 in 1.2 mi SE 4.6 mph - 0.02 in   Overcast
7:15 PM 26.6 °F 21.2 °F 26.6 °F 100% 29.84 in 0.8 mi ESE 4.6 mph - 0.02 in   Overcast
7:35 PM 26.6 °F 21.2 °F 26.6 °F 100% 29.85 in 1.0 mi East 4.6 mph - 0.03 in   Overcast
7:55 PM 26.6 °F 20.0 °F 26.6 °F 100% 29.83 in 1.0 mi East 5.8 mph - 0.04 in   Overcast
8:15 PM 26.6 °F - 26.6 °F 100% 29.83 in 2.0 mi North - - 0.02 in   Mostly Cloudy
8:35 PM 26.6 °F - 26.6 °F 100% 29.82 in 1.8 mi North - - 0.04 in   Mostly Cloudy
8:55 PM 26.6 °F 17.5 °F 26.6 °F 100% 29.80 in 1.8 mi SSE 9.2 mph - 0.06 in   Mostly Cloudy
9:15 PM 26.6 °F 18.2 °F 26.6 °F 100% 29.79 in 3.0 mi SSE 8.1 mph - N/A   Mostly Cloudy
9:35 PM 26.6 °F 19.1 °F 26.6 °F 100% 29.79 in 5.0 mi South 6.9 mph - 0.01 in   Overcast
9:55 PM 24.8 °F 17.9 °F 24.8 °F 100% 29.78 in 3.0 mi SSW 5.8 mph - 0.01 in   Overcast
10:15 PM 24.8 °F 19.1 °F 24.8 °F 100% 29.79 in 9.0 mi SSE 4.6 mph - N/A   Overcast
10:35 PM 24.8 °F 19.1 °F 24.8 °F 100% 29.78 in 10.0 mi South 4.6 mph - 0.01 in   Overcast
10:55 PM 24.8 °F - 24.8 °F 100% 29.78 in 10.0 mi Calm Calm - 0.01 in   Overcast
11:15 PM 24.8 °F - 24.8 °F 100% 29.79 in 10.0 mi Calm Calm - N/A   Overcast
11:35 PM 24.8 °F 20.5 °F 24.8 °F 100% 29.80 in 7.0 mi WNW 3.5 mph - N/A   Overcast
11:55 PM 24.8 °F 19.1 °F 24.8 °F 100% 29.79 in 4.0 mi WNW 4.6 mph - 0.01 in   Overcast